Wetbulb
63.76 61.82 62.67 61.21 52.81 51.22 46.28 46.57 50.54 48.94 49.79 52.95 53.07 51.92 50.45 51.86 49.90 48.16 62.90 66.56 67.42 70.45 73.12 73.56 73.64 73.73 73.88 73.67 73.16 73.29 73.29 73.00 73.26 73.11 73.01 72.60 72.22 71.41 70.89 70.31 69.66 69.54 69.10 68.54 67.66 66.98 66.49 66.49 66.68
61.47 60.16 61.54 57.38 49.40 44.63 45.14 48.93 48.04 49.81 51.82 53.34 52.94 52.58 51.47 50.03 56.09 58.64 61.50 65.96 68.05 70.38 72.75 73.29 72.59 73.61 73.98 73.67 73.15 73.34 73.16 72.68 72.99 72.81 72.62 72.27 71.89 71.22 70.66 70.13 69.46 69.17 68.75 68.19 67.06 65.92 64.48 63.92 65.29
60.91 58.41 57.07 52.70 48.89 44.96 45.11 48.83 49.80 50.73 52.14 52.09 51.32 53.73 52.77 52.21 57.32 59.21 64.02 66.31 68.86 70.20 72.50 73.23 72.31 73.22 73.68 73.59 73.29 73.33 73.26 72.85 72.35 72.36 72.12 72.21 71.59 70.98 70.35 69.67 68.91 68.34 68.06 67.48 66.59 65.15 63.23 62.26 63.38
59.60 58.65 55.52 49.37 45.83 47.81 48.34 49.55 51.08 50.65 51.99 52.93 52.49 49.91 54.25 58.78 59.77 62.99 66.00 67.19 68.27 69.81 72.09 71.39 72.16 73.20 73.33 73.34 73.25 72.79 72.54 72.29 72.03 72.02 72.16 71.72 71.66 70.94 70.03 69.04 68.25 67.62 67.13 66.66 65.79 64.05 61.92 61.35 61.80
58.44 56.21 49.98 47.76 46.13 47.53 49.41 50.87 51.67 50.20 50.41 51.17 51.61 49.74 52.37 55.97 62.49 64.24 65.58 66.33 67.50 69.07 71.47 72.74 71.69 72.69 72.85 72.57 71.89 71.80 72.21 71.96 71.87 71.54 71.20 71.23 71.05 70.25 69.67 68.52 67.68 67.14 66.47 65.89 64.82 63.01 60.85 60.38 61.41
54.61 54.53 47.42 44.93 45.96 48.00 49.98 51.55 51.28 50.40 50.25 50.53 49.97 50.96 52.05 57.17 58.39 62.98 64.03 66.42 67.75 69.19 70.66 71.73 69.07 69.41 71.63 71.96 71.65 71.62 72.02 71.78 70.99 71.11 71.11 70.62 70.69 70.21 69.52 68.54 67.46 66.88 66.36 65.31 64.01 62.30 60.07 59.18 59.73
52.59 50.48 47.47 47.23 46.57 47.07 48.97 51.84 50.07 49.59 49.73 50.19 52.17 49.36 52.51 53.03 57.95 62.61 63.02 65.42 67.74 69.32 69.91 70.45 71.08 70.46 67.22 69.05 70.12 70.64 71.08 70.78 70.69 70.78 70.58 70.22 70.09 69.98 69.66 69.03 67.64 66.68 66.27 64.77 63.29 61.79 59.68 57.91 57.82
53.54 50.81 46.66 47.56 46.15 46.63 50.28 50.55 51.15 50.65 49.83 52.95 52.91 49.50 50.49 52.04 54.89 59.91 59.16 59.39 60.03 61.05 63.82 66.90 68.78 69.96 70.49 72.21 67.43 67.49 69.08 69.57 70.00 69.69 68.78 67.70 68.04 67.75 66.68 65.94 67.23 66.41 65.81 64.29 62.87 61.41 59.60 56.09 54.73
53.19 46.98 45.06 46.09 46.75 48.16 50.86 49.44 51.44 52.49 51.19 51.47 51.39 51.23 50.70 52.49 54.95 56.39 57.01 56.47 56.82 56.21 57.08 58.56 61.02 66.45 67.74 69.53 68.39 66.12 65.80 66.80 67.19 67.79 66.16 65.74 70.06 69.05 66.77 64.51 66.06 66.31 65.61 64.00 62.97 61.26 58.51 53.80 52.02
50.68 47.04 45.66 48.85 49.70 49.10 50.29 50.17 50.71 49.93 50.00 49.45 49.92 51.08 51.66 52.61 53.31 53.29 53.21 53.22 53.26 53.55 54.63 55.28 56.55 58.59 63.81 67.45 69.44 70.80 70.83 70.46 70.01 70.50 70.13 69.91 69.49 69.26 67.91 63.35 63.27 64.31 64.07 64.13 62.85 60.61 58.35 58.73 56.35
50.04 46.37 47.13 48.26 49.96 51.07 50.11 49.55 51.09 49.53 48.32 50.36 49.99 50.00 50.39 51.15 51.16 51.17 51.46 51.49 51.44 52.86 54.19 54.58 55.50 56.34 58.08 65.32 68.32 69.93 70.40 69.69 69.83 69.92 69.77 69.28 69.46 68.69 68.42 66.47 64.64 64.44 60.74 64.03 62.67 61.82 62.96 60.80 58.39
47.44 48.26 47.99 49.63 50.39 49.80 49.23 50.91 49.33 49.97 49.51 50.17 50.32 49.92 49.89 49.55 49.39 49.12 49.47 50.20 50.85 52.18 53.12 54.84 56.35 57.38 57.38 61.73 67.39 68.83 68.84 69.71 69.15 69.06 68.94 68.70 68.41 68.04 66.45 65.62 65.42 65.86 63.72 63.65 62.58 62.05 61.59 60.78 58.17
48.19 48.61 49.45 50.43 49.98 49.97 49.99 49.24 49.13 49.17 49.05 49.13 48.59 48.67 48.35 48.34 48.19 49.11 49.32 50.41 50.95 50.91 53.06 55.33 57.74 58.87 58.75 58.77 66.81 68.06 66.53 66.79 65.98 65.48 66.02 67.05 66.50 66.50 66.43 65.34 64.35 64.56 63.71 62.14 63.20 61.58 59.31 59.65 58.84
49.37 48.94 48.88 49.68 49.48 49.37 47.36 48.59 47.98 49.39 49.15 47.75 47.66 47.26 47.27 46.62 46.59 48.26 48.15 48.64 49.09 51.13 53.26 54.09 55.25 59.59 57.90 62.90 63.98 62.62 62.52 61.23 61.04 60.81 62.52 64.10 64.29 63.30 63.13 62.42 60.82 59.85 59.89 59.52 59.12 57.92 57.80 56.52 54.85
48.69 46.03 48.61 48.70 48.68 47.54 48.52 45.79 45.37 48.86 47.99 46.90 46.59 46.73 46.03 45.64 46.56 46.05 46.45 47.23 49.01 52.08 50.78 50.42 54.36 58.11 58.05 56.02 55.93 56.50 56.97 56.71 55.75 57.23 57.96 58.99 61.06 61.90 60.57 60.16 59.66 58.93 58.55 56.97 56.81 55.27 54.58 55.62 54.60
46.35 46.64 44.71 48.68 47.36 47.25 47.34 44.96 48.04 47.83 47.22 46.88 46.75 46.59 45.28 44.43 44.85 45.73 46.22 47.32 49.89 50.18 48.48 50.11 52.57 52.98 51.02 50.29 50.73 50.93 52.35 53.24 53.20 54.01 54.91 56.18 56.89 57.72 56.46 55.50 54.53 54.62 54.68 54.30 53.35 52.23 52.33 51.75 52.25
46.37 43.20 45.05 45.92 47.78 46.64 45.89 46.17 46.80 47.51 47.29 47.21 47.15 46.47 45.25 44.65 44.63 44.93 45.85 47.36 49.90 47.90 48.09 48.88 49.97 49.33 48.31 47.93 48.18 48.64 49.29 49.76 50.97 52.03 53.19 54.20 55.46 55.83 55.15 54.70 54.47 53.45 53.09 53.23 52.97 52.63 52.24 52.60 52.69
43.87 43.59 44.97 44.29 45.91 45.61 45.28 45.05 46.32 46.26 46.65 47.16 47.18 46.10 45.12 44.49 42.96 43.82 45.15 47.12 49.44 47.74 48.43 48.23 48.79 48.07 48.13 48.51 47.76 47.07 46.65 47.23 48.68 48.53 48.77 49.86 50.71 52.26 53.15 53.02 53.22 53.08 52.56 51.81 52.86 52.44 52.50 50.93 50.26
46.07 44.80 44.22 46.85 46.31 44.14 45.26 45.62 47.76 46.74 45.84 46.81 46.60 45.75 44.65 43.72 43.20 44.08 44.99 47.37 48.72 47.74 47.47 48.20 48.68 48.78 50.32 50.31 49.56 48.60 46.14 45.67 44.43 44.25 45.13 45.56 46.43 47.86 48.35 48.01 48.64 49.32 47.99 47.87 48.56 50.16 50.90 49.74 48.92
44.60 43.36 43.42 46.79 44.93 43.29 44.79 44.81 47.83 48.69 46.15 47.13 46.99 45.75 44.57 42.46 42.48 42.95 44.43 45.92 47.77 47.80 48.05 48.41 49.18 50.81 51.85 50.86 48.86 46.87 44.52 43.26 42.42 41.93 41.66 42.04 42.59 42.74 43.32 43.90 43.67 44.94 44.22 43.70 44.59 45.86 47.31 47.24 47.46
43.50 42.66 43.45 43.35 43.01 43.50 43.05 41.92 44.52 47.99 47.52 46.16 46.25 46.43 44.82 43.05 42.01 41.94 43.09 44.61 45.78 45.92 46.64 47.27 48.19 48.55 48.30 47.41 45.57 44.08 43.70 42.77 40.86 39.80 39.16 39.83 40.65 41.01 40.76 40.88 41.03 40.79 40.92 39.38 39.90 40.77 40.90 41.51 43.99
41.07 46.03 44.07 42.87 40.72 38.36 43.68 36.07 44.44 47.28 43.42 42.57 42.70 43.57 43.08 42.98 42.77 42.23 41.80 42.54 42.78 42.82 44.22 45.53 45.59 45.97 46.50 47.38 46.11 45.28 42.13 38.55 38.51 38.00 38.45 38.35 39.34 38.72 39.36 39.44 39.53 39.27 39.09 38.62 38.46 38.94 38.93 39.01 36.75
42.66 44.34 42.97 42.59 40.63 40.45 41.25 36.05 42.06 45.04 42.23 41.76 41.73 42.02 42.31 42.51 41.78 40.60 40.96 40.65 40.50 41.60 41.92 42.06 42.00 41.97 42.70 43.17 42.98 41.61 39.34 39.07 38.34 37.63 37.33 37.24 37.79 38.06 37.51 37.92 37.86 37.51 37.56 37.74 37.54 37.27 37.23 37.48 36.43
44.18 41.91 40.39 40.45 39.96 33.81 39.45 38.76 40.12 42.78 41.52 43.54 41.49 40.95 41.56 41.02 40.95 40.48 39.93 38.94 38.60 38.90 39.81 40.11 39.60 39.23 40.34 40.97 40.98 39.56 38.39 37.58 37.44 37.13 36.57 36.43 36.36 36.07 36.39 36.49 36.16 35.90 35.82 35.85 36.19 36.67 35.82 35.59 35.68
42.16 40.08 35.10 33.10 31.71 31.61 38.60 38.44 41.08 46.25 43.07 44.80 40.91 40.36 41.28 41.18 40.39 39.27 37.57 37.48 37.64 37.51 38.10 38.18 38.03 36.58 37.96 38.80 38.91 38.99 38.54 38.31 37.23 37.05 36.62 35.76 35.07 34.64 34.35 34.97 34.64 34.14 34.07 34.43 35.06 34.70 34.35 34.12 33.49
38.97 40.84 35.98 29.71 31.32 34.10 32.65 32.47 39.88 44.00 43.31 42.00 43.38 42.04 41.32 40.26 40.02 38.50 37.96 37.70 36.74 36.41 36.48 36.10 36.17 35.57 36.83 37.17 37.16 38.10 38.21 37.71 37.19 36.82 36.28 35.36 34.54 33.96 34.37 33.86 33.69 33.36 33.15 33.09 33.82 33.55 33.18 33.21 33.06
39.34 36.26 43.00 34.39 29.59 30.03 36.07 38.27 42.88 38.72 37.73 39.20 41.24 40.53 39.38 39.36 38.95 38.10 38.37 37.80 36.22 35.45 35.41 36.03 35.60 35.89 36.03 36.07 36.39 36.26 36.46 36.18 35.57 35.64 35.71 34.68 34.33 33.50 33.20 33.15 32.58 32.34 32.13 31.84 32.14 31.85 31.18 31.67 32.07
41.01 43.05 33.50 35.02 29.04 28.82 35.54 36.89 37.94 35.22 36.69 37.47 38.79 38.96 38.81 39.04 38.69 38.48 38.01 37.17 36.72 36.46 36.18 36.34 35.88 35.13 35.50 35.64 35.91 35.68 35.70 35.75 35.41 35.20 34.24 33.80 33.03 32.87 32.32 31.83 31.65 31.24 31.08 30.70 30.78 30.86 31.05 29.75 30.64
36.23 36.05 37.82 38.49 36.48 32.98 31.64 35.52 43.11 43.03 40.81 37.50 38.45 39.23 38.69 38.69 38.90 38.40 38.11 37.77 37.22 36.93 35.93 35.29 35.29 35.08 34.70 35.31 35.35 35.08 34.93 34.95 34.94 34.31 33.72 33.20 32.70 31.91 31.01 30.55 30.12 29.54 29.10 29.06 28.83 28.79 28.45 27.81 28.11
42.44 39.44 38.86 33.88 31.59 33.46 32.78 36.15 39.71 43.21 44.12 41.33 39.51 39.65 40.40 40.06 39.60 38.93 38.14 37.20 36.19 35.62 35.22 34.69 34.88 34.66 34.92 35.25 34.96 34.59 34.45 34.20 33.81 33.20 33.07 33.01 31.46 31.22 30.05 29.25 28.58 28.12 27.77 27.45 26.92 26.65 27.02 26.28 25.97
MSLP
1012.50 1011.65 1011.22 1010.46 1009.54 1008.34 1009.08 1010.24 1010.41 1010.52 1010.58 1011.32 1011.55 1011.20 1011.65 1011.98 1012.23 1013.56 1014.80 1014.96 1015.42 1015.27 1015.85 1016.96 1017.39 1017.71 1018.01 1018.31 1018.49 1018.60 1018.62 1018.70 1018.90 1019.07 1019.23 1019.44 1019.60 1019.77 1019.89 1020.01 1020.15 1020.23 1020.24 1020.33 1020.41 1020.49 1020.50 1020.42 1020.27
1012.04 1011.72 1011.06 1009.65 1008.63 1008.12 1009.29 1010.15 1010.40 1010.88 1011.34 1011.68 1011.70 1011.58 1011.55 1012.59 1013.22 1013.99 1014.37 1015.39 1015.53 1015.45 1015.97 1016.56 1017.51 1017.76 1018.05 1018.34 1018.55 1018.71 1018.84 1019.00 1019.19 1019.36 1019.52 1019.69 1019.81 1019.98 1020.16 1020.37 1020.50 1020.59 1020.58 1020.77 1020.91 1020.87 1020.90 1020.77 1020.66
1012.39 1011.90 1010.25 1009.11 1008.42 1008.22 1009.26 1010.21 1010.67 1011.23 1011.58 1011.53 1011.57 1012.00 1012.30 1013.44 1014.05 1014.49 1015.44 1015.56 1015.52 1015.79 1016.11 1016.62 1017.63 1017.86 1018.15 1018.50 1018.79 1018.97 1019.10 1019.29 1019.43 1019.55 1019.77 1019.89 1020.07 1020.32 1020.53 1020.62 1020.81 1020.95 1020.99 1021.17 1021.29 1021.29 1021.19 1021.15 1020.95
1011.90 1011.05 1010.31 1009.22 1008.86 1009.75 1009.74 1010.42 1010.95 1011.22 1011.65 1011.85 1011.77 1012.24 1013.70 1015.06 1015.07 1015.73 1015.87 1015.77 1015.66 1016.02 1016.27 1017.25 1017.75 1018.02 1018.17 1018.50 1018.89 1019.04 1019.23 1019.42 1019.59 1019.68 1019.83 1020.05 1020.32 1020.48 1020.62 1020.95 1021.18 1021.22 1021.34 1021.52 1021.62 1021.66 1021.54 1021.51 1021.33
1011.75 1010.45 1009.39 1009.23 1009.68 1010.22 1010.71 1011.09 1011.24 1011.24 1011.55 1011.74 1012.16 1012.54 1013.98 1015.53 1015.86 1016.02 1016.14 1016.11 1016.00 1016.24 1016.46 1017.16 1017.84 1018.09 1018.29 1018.63 1018.99 1019.18 1019.44 1019.48 1019.69 1019.84 1020.02 1020.17 1020.41 1020.64 1020.84 1020.97 1021.13 1021.36 1021.52 1021.68 1021.82 1021.90 1021.96 1021.90 1021.83
1010.86 1010.39 1009.34 1009.28 1009.74 1010.54 1011.01 1011.47 1011.47 1011.38 1011.81 1012.22 1012.30 1012.90 1014.92 1016.21 1016.34 1016.54 1016.51 1016.48 1016.37 1016.65 1016.98 1017.15 1018.03 1018.40 1018.56 1018.73 1018.94 1019.20 1019.45 1019.69 1019.86 1020.11 1020.23 1020.36 1020.56 1020.85 1021.00 1021.11 1021.30 1021.48 1021.62 1021.82 1022.02 1022.11 1022.17 1022.20 1022.20
1011.04 1010.35 1009.40 1009.41 1010.06 1010.74 1011.12 1011.91 1011.73 1011.65 1012.00 1012.59 1013.02 1013.15 1015.14 1016.34 1016.94 1016.92 1016.98 1017.03 1017.06 1017.16 1017.32 1017.52 1017.63 1018.25 1018.83 1018.97 1019.10 1019.28 1019.46 1019.69 1019.94 1020.16 1020.37 1020.58 1020.78 1021.01 1021.17 1021.35 1021.52 1021.67 1021.86 1022.03 1022.29 1022.31 1022.45 1022.43 1022.53
1011.80 1010.95 1010.31 1010.02 1010.22 1010.71 1011.63 1012.08 1012.37 1012.20 1012.62 1013.44 1013.79 1013.79 1015.22 1016.87 1017.37 1017.23 1017.46 1017.63 1017.93 1018.21 1018.18 1018.24 1018.34 1018.47 1018.68 1018.45 1019.02 1019.36 1019.61 1019.79 1020.00 1020.22 1020.43 1020.68 1020.91 1021.18 1021.45 1021.58 1021.82 1021.99 1022.20 1022.33 1022.43 1022.56 1022.67 1022.71 1022.83
1012.62 1011.32 1010.33 1010.31 1010.48 1010.81 1012.11 1012.22 1012.84 1013.27 1013.17 1013.82 1014.98 1015.69 1017.10 1017.46 1017.37 1017.33 1017.53 1017.77 1018.14 1018.55 1018.81 1018.93 1018.95 1018.94 1018.95 1018.85 1018.92 1019.25 1019.56 1019.79 1019.98 1020.21 1020.48 1020.74 1020.56 1021.01 1021.44 1021.67 1021.82 1022.08 1022.30 1022.44 1022.44 1022.56 1022.74 1022.81 1022.83
1012.36 1011.55 1010.72 1011.18 1011.13 1011.50 1012.30 1012.51 1012.84 1013.28 1013.55 1014.50 1015.67 1016.80 1017.51 1017.66 1017.64 1017.67 1017.86 1018.11 1018.51 1018.84 1019.05 1019.26 1019.30 1019.22 1019.17 1019.08 1018.92 1018.80 1019.10 1019.37 1019.38 1019.56 1020.09 1020.16 1020.19 1020.71 1021.12 1021.80 1021.97 1022.08 1022.27 1022.46 1022.63 1022.82 1022.70 1022.60 1022.63
1012.61 1011.91 1012.10 1012.29 1012.50 1012.40 1012.79 1013.19 1013.54 1013.58 1013.97 1014.52 1015.29 1016.94 1017.77 1018.01 1018.30 1018.41 1018.62 1018.96 1019.23 1019.35 1019.30 1019.50 1019.55 1019.54 1019.34 1019.19 1019.12 1019.09 1019.22 1019.39 1019.37 1019.51 1019.85 1020.13 1020.45 1020.67 1021.15 1021.69 1022.10 1022.23 1022.40 1022.46 1022.72 1022.79 1022.41 1022.74 1022.83
1012.86 1012.99 1012.88 1013.18 1013.51 1013.63 1013.53 1013.60 1013.77 1014.18 1015.18 1016.15 1016.95 1017.68 1018.14 1018.46 1018.85 1019.21 1019.38 1019.55 1019.67 1019.68 1019.77 1019.81 1019.73 1019.47 1019.36 1019.16 1019.21 1019.24 1019.31 1019.41 1019.54 1019.98 1020.23 1020.36 1020.59 1020.99 1021.52 1021.81 1022.08 1022.27 1022.64 1022.60 1022.88 1022.94 1023.09 1023.03 1023.25
1013.18 1013.26 1013.57 1013.74 1014.07 1014.18 1014.42 1014.15 1014.22 1014.61 1016.12 1017.07 1017.81 1018.28 1018.67 1019.08 1019.46 1019.69 1019.93 1019.97 1020.12 1020.15 1020.19 1020.16 1019.96 1019.63 1019.27 1019.20 1019.11 1019.40 1019.95 1020.14 1020.63 1020.94 1021.15 1020.94 1021.15 1021.36 1021.64 1022.03 1022.32 1022.62 1022.83 1022.94 1022.82 1023.08 1023.52 1023.47 1023.41
1013.55 1013.70 1013.59 1013.82 1014.03 1014.33 1014.64 1014.28 1014.96 1014.74 1016.27 1017.19 1017.88 1018.50 1019.10 1019.64 1019.96 1019.92 1020.25 1020.38 1020.55 1020.58 1020.63 1020.86 1020.71 1019.85 1019.33 1018.98 1019.80 1020.33 1020.71 1021.23 1021.55 1021.89 1021.94 1021.82 1021.91 1022.13 1022.31 1022.59 1022.90 1023.24 1023.38 1023.41 1023.48 1023.74 1023.86 1024.03 1024.02
1014.00 1013.72 1013.22 1013.43 1013.86 1014.23 1014.72 1014.38 1014.41 1015.01 1016.35 1017.07 1017.83 1018.61 1019.34 1019.83 1020.12 1020.48 1020.83 1020.87 1021.01 1020.92 1021.43 1021.40 1021.08 1020.58 1020.46 1020.85 1021.09 1021.45 1021.85 1022.29 1022.69 1022.87 1023.07 1023.01 1022.82 1022.80 1023.04 1023.18 1023.30 1023.57 1023.61 1023.71 1023.93 1024.18 1024.21 1024.10 1024.12
1013.80 1013.61 1012.78 1012.68 1013.84 1014.41 1014.76 1013.20 1013.75 1015.40 1016.07 1016.67 1017.55 1018.34 1019.25 1019.99 1020.45 1020.90 1021.18 1021.24 1021.32 1021.58 1021.83 1021.81 1021.52 1021.37 1021.70 1021.96 1022.17 1022.38 1022.57 1022.84 1023.26 1023.56 1023.78 1023.66 1023.71 1023.79 1024.14 1024.47 1024.74 1024.72 1024.56 1024.53 1024.48 1024.60 1024.60 1024.41 1024.34
1013.25 1012.33 1012.20 1012.62 1013.55 1014.03 1014.40 1013.16 1014.26 1015.32 1015.78 1016.25 1017.19 1018.12 1019.12 1019.96 1020.62 1021.15 1021.37 1021.54 1021.61 1021.99 1022.11 1022.09 1022.07 1022.10 1022.25 1022.46 1022.62 1022.85 1023.16 1023.34 1023.64 1023.84 1024.09 1024.29 1024.22 1024.35 1024.54 1024.76 1024.90 1024.99 1024.96 1025.05 1025.29 1025.54 1025.29 1024.89 1024.64
1011.79 1012.06 1012.09 1012.47 1013.20 1013.88 1013.72 1013.42 1014.12 1015.07 1015.46 1015.79 1016.77 1017.88 1018.80 1019.64 1020.58 1021.25 1021.49 1021.65 1021.78 1022.18 1022.33 1022.46 1022.48 1022.56 1022.55 1022.44 1022.60 1022.92 1023.31 1023.73 1024.18 1024.57 1024.82 1024.81 1024.91 1025.02 1024.94 1025.08 1025.29 1025.34 1025.31 1025.36 1025.19 1025.21 1025.10 1025.18 1025.04
1012.38 1012.24 1012.02 1012.02 1013.16 1013.81 1013.14 1012.84 1012.73 1014.15 1015.08 1015.38 1016.30 1017.37 1018.45 1019.58 1020.79 1021.43 1021.78 1021.85 1021.91 1022.19 1022.38 1022.55 1022.68 1022.80 1022.60 1022.56 1022.64 1023.09 1023.82 1024.60 1025.18 1025.61 1025.74 1025.65 1025.72 1025.60 1025.72 1026.10 1026.15 1026.18 1026.30 1026.49 1026.33 1026.00 1025.73 1025.78 1025.64
1012.84 1012.58 1012.27 1012.37 1013.35 1013.98 1013.08 1012.45 1012.40 1012.63 1013.73 1014.63 1015.60 1016.79 1018.10 1019.68 1020.70 1021.44 1021.83 1022.13 1022.23 1022.39 1022.40 1022.52 1022.69 1022.79 1022.85 1023.01 1023.22 1023.50 1024.27 1025.09 1025.76 1026.25 1026.44 1026.48 1026.53 1026.47 1026.51 1026.70 1027.11 1027.20 1027.21 1027.35 1027.21 1027.00 1026.41 1026.42 1026.42
1012.91 1012.75 1012.54 1012.80 1013.83 1014.14 1013.43 1012.17 1011.75 1011.64 1013.03 1014.51 1015.66 1016.68 1017.89 1019.16 1020.32 1021.36 1021.85 1022.22 1022.58 1022.78 1022.83 1022.82 1022.98 1023.29 1023.52 1023.77 1023.95 1024.23 1024.61 1024.97 1025.56 1026.36 1026.89 1027.22 1027.34 1027.48 1027.40 1027.62 1027.73 1027.95 1028.11 1028.13 1028.17 1028.03 1027.83 1027.49 1027.30
1012.93 1012.94 1013.44 1013.59 1014.00 1013.23 1013.44 1011.08 1010.48 1010.73 1012.54 1014.27 1015.75 1016.77 1017.76 1018.82 1020.03 1021.06 1021.76 1022.31 1022.83 1023.23 1023.38 1023.28 1023.47 1023.64 1023.84 1023.78 1024.18 1024.34 1024.70 1025.46 1026.58 1027.17 1027.67 1027.95 1027.99 1027.98 1028.12 1028.17 1028.37 1028.46 1028.68 1028.95 1029.01 1028.91 1028.70 1028.68 1028.47
1013.69 1013.96 1014.16 1014.26 1014.20 1013.94 1013.41 1013.08 1009.79 1010.46 1011.79 1013.06 1014.92 1016.44 1017.49 1018.62 1019.72 1020.76 1021.54 1022.31 1022.96 1023.34 1023.54 1023.74 1023.93 1024.12 1024.27 1024.43 1024.74 1024.98 1025.65 1026.24 1026.94 1027.60 1028.24 1028.63 1028.86 1028.84 1028.92 1029.06 1029.24 1029.45 1029.47 1029.91 1029.95 1029.94 1029.76 1029.74 1029.50
1014.70 1014.98 1015.27 1015.30 1015.05 1013.32 1013.00 1012.68 1008.74 1009.64 1010.26 1011.74 1014.17 1015.96 1017.09 1018.34 1019.47 1020.58 1021.68 1022.55 1023.17 1023.74 1023.81 1023.99 1024.23 1024.59 1024.85 1025.12 1025.54 1025.99 1026.35 1026.93 1027.23 1027.76 1028.34 1028.89 1029.23 1029.61 1029.59 1029.64 1029.80 1030.03 1030.18 1030.25 1030.31 1030.30 1030.59 1030.49 1030.35
1014.93 1015.09 1015.13 1014.92 1014.90 1012.76 1012.24 1011.61 1008.88 1009.30 1010.56 1011.32 1013.25 1015.31 1016.86 1018.35 1019.55 1020.66 1021.77 1022.51 1023.21 1023.78 1024.08 1024.37 1024.65 1025.05 1025.30 1025.58 1025.89 1026.28 1026.82 1027.48 1027.85 1028.15 1028.46 1028.96 1029.50 1030.08 1030.28 1030.28 1030.43 1030.48 1030.60 1030.99 1031.10 1030.91 1030.95 1031.10 1030.97
1014.17 1014.21 1014.16 1014.03 1013.96 1013.10 1013.24 1010.86 1009.43 1009.94 1011.06 1012.18 1013.33 1015.13 1016.70 1018.11 1019.29 1020.41 1021.44 1022.25 1023.03 1023.71 1024.17 1024.53 1024.96 1025.35 1025.76 1026.17 1026.59 1026.94 1027.15 1027.81 1028.35 1028.78 1028.90 1029.05 1029.60 1030.21 1030.58 1030.65 1030.86 1031.23 1031.32 1031.23 1031.55 1031.45 1031.44 1031.59 1031.59
1014.01 1014.13 1013.90 1014.50 1015.13 1014.20 1011.54 1010.24 1009.91 1011.04 1012.05 1012.88 1013.50 1014.87 1016.13 1017.46 1018.72 1019.90 1020.98 1021.86 1022.75 1023.54 1024.08 1024.57 1025.14 1025.61 1026.04 1026.44 1026.87 1027.35 1027.45 1027.70 1028.15 1028.99 1029.24 1029.50 1029.95 1030.47 1030.66 1031.16 1031.22 1031.60 1031.57 1031.65 1031.79 1032.04 1032.02 1031.91 1031.97
1013.52 1013.59 1014.59 1014.69 1013.99 1012.44 1009.70 1009.06 1008.64 1010.26 1011.12 1012.54 1013.42 1014.45 1015.99 1017.35 1018.46 1019.42 1020.36 1021.22 1022.11 1023.03 1023.81 1024.59 1025.30 1025.83 1026.34 1026.69 1026.98 1027.38 1027.97 1028.37 1028.54 1028.95 1029.48 1029.81 1030.22 1030.73 1031.15 1031.42 1031.81 1031.95 1032.00 1031.96 1032.02 1032.18 1032.00 1032.24 1032.02
1013.68 1013.46 1013.24 1012.94 1012.45 1011.30 1009.64 1007.61 1006.99 1007.77 1009.31 1010.88 1012.55 1013.72 1014.89 1016.10 1017.27 1018.43 1019.59 1020.66 1021.56 1022.51 1023.34 1024.07 1024.75 1025.42 1026.17 1026.74 1027.28 1027.43 1027.96 1028.43 1028.65 1028.93 1029.41 1030.12 1030.59 1030.90 1031.38 1031.72 1031.97 1032.08 1032.47 1032.21 1032.02 1031.98 1032.22 1032.32 1032.33
1011.53 1011.81 1012.34 1011.94 1011.91 1011.48 1010.28 1006.82 1007.36 1007.77 1008.46 1010.19 1011.87 1013.15 1014.34 1015.51 1016.59 1017.77 1019.05 1020.14 1021.02 1021.83 1022.69 1023.49 1024.33 1025.08 1025.86 1026.46 1026.95 1027.41 1028.09 1028.58 1028.78 1028.86 1029.54 1030.20 1030.45 1031.13 1031.27 1031.58 1032.18 1032.26 1032.66 1032.38 1032.36 1032.08 1032.29 1032.20 1032.28
Wind_Speed
11 6 5 5 6 2 6 6 1 4 5 7 5 9 13 13 11 6 4 5 3 10 13 12 10 12 12 10 9 8 8 9 10 10 12 12 12 12 13 13 13 12 13 13 13 13 12 12 11
8 6 4 4 4 7 7 5 6 6 6 3 2 2 6 13 11 8 5 5 2 8 10 12 9 11 12 11 9 8 8 8 8 9 10 10 12 12 12 12 12 12 12 12 12 13 13 12 11
6 5 5 3 4 6 7 3 7 6 4 2 3 4 4 7 11 6 6 3 5 8 8 11 9 9 11 11 9 8 8 8 7 8 9 10 11 11 11 11 12 12 12 12 13 13 13 12 12
4 5 5 7 4 4 6 6 5 7 5 1 2 8 8 10 5 6 6 4 4 6 7 12 8 6 10 12 10 9 9 9 8 7 8 8 9 11 11 11 11 12 13 13 13 14 15 14 12
4 4 3 2 4 5 4 4 3 3 4 5 2 6 8 8 9 8 6 4 4 5 6 9 7 3 7 8 8 8 7 7 8 7 6 6 8 9 10 11 10 11 12 13 13 14 15 14 14
4 4 5 6 5 5 4 4 4 3 3 6 2 6 8 7 7 7 6 6 4 6 3 5 6 2 1 5 7 7 7 6 5 5 5 4 8 8 10 10 10 10 11 12 12 13 14 14 14
5 5 4 2 7 7 5 4 6 4 6 6 2 3 10 11 7 5 6 8 8 6 4 3 5 7 2 3 4 6 7 6 5 5 4 5 7 8 9 9 9 10 11 12 12 12 12 12 12
4 4 4 6 8 7 7 6 2 4 6 4 3 3 7 9 5 2 5 6 7 7 6 5 5 5 5 7 8 5 5 6 5 4 4 6 8 9 9 9 9 10 10 10 10 10 9 9 10
3 5 6 5 7 5 6 8 3 1 3 3 4 5 5 6 2 2 4 5 4 5 6 5 4 1 3 5 2 7 5 4 3 6 6 7 6 8 8 8 10 9 9 8 10 9 7 5 6
4 4 1 4 2 4 7 6 6 5 6 6 5 7 6 6 5 4 3 3 5 6 5 5 5 5 3 3 6 6 5 4 6 7 7 6 4 5 7 7 7 9 8 7 6 5 6 0 4
1 5 2 3 3 1 5 5 2 5 6 4 1 6 5 5 6 5 5 6 6 6 5 6 5 5 4 4 3 2 2 2 4 3 3 3 3 6 4 4 3 3 3 3 3 1 2 5 4
6 2 2 2 3 2 5 0 5 5 6 7 7 6 4 5 5 6 6 6 8 7 7 7 7 4 2 4 2 1 1 2 3 6 7 2 2 3 3 2 2 2 1 3 1 2 4 5 5
6 3 3 3 4 4 1 7 7 6 6 6 6 5 4 4 4 4 5 5 7 8 9 9 9 6 2 5 3 4 6 6 8 7 8 6 6 5 4 3 3 3 3 2 2 4 4 4 5
2 4 5 6 8 6 6 10 3 7 8 6 5 4 4 4 4 3 6 7 8 8 9 10 10 6 3 3 9 7 7 8 8 8 9 9 5 5 5 4 4 4 3 4 4 4 3 2 2
2 6 9 11 9 5 7 11 12 10 11 9 6 4 2 3 5 6 5 5 6 6 8 8 7 9 11 12 10 8 8 8 8 8 11 11 10 9 7 5 5 5 4 5 3 4 3 3 2
5 4 8 8 8 4 9 12 9 11 12 10 6 4 1 3 3 4 4 4 5 7 7 7 7 11 13 11 9 8 9 8 8 8 8 11 11 11 9 7 7 7 6 4 4 3 2 2 3
8 10 9 5 10 5 11 3 9 12 11 9 7 6 4 4 3 3 3 4 6 6 6 8 9 11 12 11 10 11 11 9 8 8 9 12 11 11 8 7 6 6 5 6 6 6 4 5 5
10 11 9 10 8 9 11 14 9 11 12 11 9 8 7 6 3 3 4 4 6 6 7 8 8 10 10 8 9 8 8 8 9 10 10 12 10 11 9 9 9 8 7 7 6 6 5 4 6
8 10 12 8 4 5 14 15 12 14 12 12 11 10 9 7 4 4 4 5 7 8 8 8 8 6 5 6 8 8 10 9 10 10 12 12 11 12 11 8 9 8 9 10 10 8 7 7 9
13 15 16 13 4 4 12 17 15 14 18 16 14 12 11 9 8 6 6 6 6 7 8 8 7 6 6 6 7 7 9 10 9 9 11 12 12 12 11 10 9 10 8 10 11 10 6 6 8
16 16 14 14 2 10 13 19 22 24 15 9 10 10 10 12 11 9 8 8 7 7 7 8 8 9 8 9 9 9 9 9 9 9 8 10 12 12 12 12 9 9 8 8 9 9 11 7 7
16 14 14 12 7 10 6 11 11 10 16 15 14 14 14 13 12 10 10 9 8 7 6 9 9 9 7 7 7 7 8 9 8 9 8 8 10 11 11 11 10 9 8 9 8 8 8 8 7
7 2 7 11 14 15 17 11 12 7 15 19 19 17 16 15 15 14 12 11 9 8 8 8 9 9 8 8 9 8 10 8 8 8 10 10 9 11 11 10 10 9 7 8 8 8 9 7 5
10 5 2 3 8 14 17 18 12 13 14 13 18 19 19 19 17 15 12 10 9 7 8 8 10 9 8 8 9 10 11 10 8 9 7 6 6 7 9 9 9 8 7 7 6 7 8 6 6
13 8 5 6 7 9 1 14 16 2 5 9 21 22 20 18 17 15 14 12 10 9 8 8 9 10 9 9 10 11 11 10 11 8 6 8 6 6 7 8 7 7 8 7 6 6 6 6 6
18 17 7 7 7 5 2 11 8 2 7 4 15 19 18 19 17 16 15 13 12 10 9 9 7 10 9 10 10 9 9 6 6 7 7 6 6 6 7 7 7 8 7 7 5 4 4 5 4
8 14 13 4 2 5 8 11 7 7 7 7 16 19 20 19 17 17 17 14 12 11 10 10 10 9 10 10 9 9 9 8 9 8 8 6 7 6 6 6 5 5 5 6 5 4 4 5 5
9 9 7 7 7 9 9 14 11 10 15 15 18 19 18 18 18 17 16 15 14 13 11 11 10 10 10 10 9 8 8 8 9 8 7 7 7 6 5 4 3 3 4 4 4 3 4 5 3
8 10 9 6 10 4 5 8 9 13 17 21 18 18 21 21 20 18 16 15 14 12 12 12 11 12 10 9 8 9 8 9 8 7 8 7 6 5 4 3 2 2 2 3 3 3 4 5 5
17 14 20 7 7 7 5 11 3 3 11 16 17 18 19 19 19 18 16 15 14 14 14 13 12 11 10 10 9 9 9 8 8 8 7 6 7 5 5 4 2 1 1 2 2 3 4 4 6
Wind_Direction
281 304 295 255 233 213 121 94 29 92 108 51 52 27 71 40 22 55 92 104 65 153 139 161 158 148 137 132 128 120 112 103 108 116 117 114 101 94 87 81 76 71 68 63 61 57 53 49 47
310 310 240 281 236 160 104 124 104 69 76 71 112 168 76 79 55 91 121 71 74 157 154 160 146 148 143 136 134 130 125 120 114 119 120 121 114 99 89 84 75 69 65 60 55 52 46 44 41
280 282 269 275 299 95 124 134 111 96 94 156 122 20 28 40 52 61 29 65 109 143 163 123 146 155 149 140 147 146 137 133 126 123 118 112 108 103 94 83 72 65 60 56 50 46 44 41 41
289 203 217 253 120 72 107 124 113 130 110 102 21 92 99 39 41 38 76 63 116 140 164 123 149 209 162 151 156 156 148 144 139 129 122 122 125 116 98 88 78 64 58 54 49 43 42 39 37
233 248 236 188 116 120 114 99 141 142 99 102 300 113 86 51 69 58 83 52 101 134 163 142 164 206 157 160 171 166 158 151 144 141 142 138 124 118 115 103 87 73 65 61 52 46 43 42 41
234 284 234 196 150 137 135 133 175 176 129 112 116 119 80 70 52 53 50 71 69 103 126 151 158 345 315 189 184 173 163 158 151 148 141 132 138 128 118 110 96 84 75 70 59 54 49 46 45
290 256 282 243 163 170 149 149 205 163 151 91 35 167 120 67 37 57 61 62 61 77 118 155 191 190 220 294 205 186 178 171 166 163 146 129 125 115 110 104 97 88 83 74 66 61 52 52 51
288 270 232 217 183 194 145 170 129 258 103 111 359 155 155 44 12 98 82 82 77 65 53 30 19 22 261 218 194 205 188 177 174 168 151 153 130 124 122 116 103 102 102 96 82 72 61 60 54
302 245 224 212 221 173 149 187 162 82 193 76 34 37 31 6 5 147 155 99 81 65 41 28 4 311 309 263 142 171 204 176 191 171 167 165 191 170 155 105 121 112 119 113 113 109 86 102 91
266 263 225 357 188 195 165 226 169 218 183 149 125 89 59 54 54 77 50 32 30 22 21 10 352 337 281 261 234 231 180 198 225 200 190 213 190 131 130 119 122 124 128 136 123 94 119 226 33
140 284 103 147 112 218 164 206 211 238 225 32 232 112 70 60 55 47 39 30 11 359 13 6 350 332 296 224 261 236 198 216 235 259 181 163 119 139 150 132 148 136 159 142 144 165 25 60 38
240 182 211 128 149 191 202 15 225 245 67 84 75 92 81 57 45 28 12 6 360 355 1 356 349 327 280 266 192 133 265 198 13 53 33 141 139 128 129 116 158 158 252 95 53 47 23 52 51
246 167 200 166 177 225 327 244 263 217 126 115 111 107 82 59 30 31 11 18 5 3 359 358 352 334 238 208 131 102 67 58 64 63 48 39 49 43 46 47 64 12 35 35 339 56 36 12 27
39 228 215 205 217 227 233 239 191 199 155 150 145 114 87 57 20 27 24 14 9 5 12 8 356 327 155 114 70 71 74 71 63 51 39 41 55 58 59 57 56 56 28 44 51 45 31 28 355
262 264 225 224 221 241 216 244 230 142 165 158 154 148 119 51 32 30 22 16 11 27 24 17 14 45 61 61 62 61 63 60 56 51 43 38 34 52 52 52 50 43 56 72 61 52 45 5 328
246 238 249 119 179 166 203 267 146 160 172 174 172 165 132 48 29 27 21 25 31 51 42 40 59 68 67 64 66 68 68 69 65 59 48 46 49 54 52 45 34 25 30 31 36 27 30 20 320
212 263 210 189 200 151 205 246 152 179 196 193 199 190 185 160 131 67 48 43 57 64 75 74 77 85 87 84 83 74 71 68 67 61 58 50 53 59 62 58 51 57 55 42 32 22 358 6 354
259 227 250 256 157 223 213 246 160 193 215 217 201 196 195 183 143 107 99 95 94 83 91 91 93 102 107 105 100 92 89 81 71 65 61 56 56 48 51 50 48 41 41 36 29 30 53 16 347
291 284 267 270 97 260 243 250 221 196 214 217 208 205 196 178 144 122 117 124 118 113 103 103 112 136 134 123 112 94 84 79 74 67 62 61 56 58 58 53 42 50 44 37 26 5 18 22 353
239 253 256 264 144 254 270 264 260 224 211 218 216 206 189 165 159 144 131 128 117 115 112 113 115 114 90 89 93 99 99 88 88 80 69 64 62 61 63 62 52 44 51 40 32 28 21 38 24
234 240 252 260 135 239 273 265 253 243 204 213 233 205 182 175 161 152 141 128 122 112 109 106 101 102 96 104 107 109 115 111 102 88 77 63 63 59 62 61 61 57 50 49 40 28 24 32 24
243 226 255 263 251 261 164 282 279 241 206 210 204 198 182 168 161 148 145 136 123 114 108 106 105 103 103 132 137 125 109 106 89 85 83 72 64 65 65 64 64 63 57 46 40 37 37 22 31
257 58 229 247 258 272 254 264 260 243 214 206 202 196 184 171 164 161 152 139 127 128 115 110 109 107 109 111 111 110 106 106 105 97 90 82 68 63 63 61 61 57 56 49 43 37 33 30 30
129 115 86 254 265 255 238 235 253 213 230 199 186 191 181 173 169 163 151 149 138 135 131 123 119 109 105 105 104 107 112 114 117 112 102 89 82 75 71 71 67 64 59 47 41 39 37 25 30
201 176 248 234 212 257 337 219 251 218 168 199 181 184 179 173 171 165 164 167 155 149 137 131 126 116 112 109 112 114 115 116 119 120 116 116 102 86 70 68 60 56 49 43 30 34 34 24 15
197 198 202 247 234 266 20 236 243 263 109 133 176 178 172 175 176 176 174 169 162 157 151 141 131 127 124 119 116 116 114 113 108 110 118 112 112 99 82 72 61 50 42 36 26 30 27 14 6
165 221 238 312 155 267 221 244 256 159 180 170 167 171 178 179 178 178 177 175 168 168 163 157 149 142 140 136 133 133 131 136 124 120 114 109 108 104 90 75 75 56 49 34 12 19 21 1 356
211 159 174 217 228 238 240 242 241 208 196 180 179 181 179 180 182 182 180 178 174 174 167 162 162 159 153 152 148 143 137 135 131 130 123 116 113 113 104 94 73 58 44 33 11 9 15 349 349
176 204 219 227 223 258 277 241 185 203 188 184 184 184 183 185 184 183 182 180 176 172 169 171 172 166 165 163 156 148 151 148 143 136 129 128 125 128 121 114 102 78 33 28 10 12 351 336 329
226 213 205 211 183 245 290 253 155 131 175 173 183 187 188 188 185 184 181 176 176 176 176 179 177 172 173 169 167 164 160 161 158 146 144 145 145 151 150 146 150 98 9 9 346 345 328 320 317